[Iaude] MPEC D19: 2024 CB8 [a=27.39,e=0.75,i=23.9,H=13.8]
    mpec at cfa.harvard.edu 
    mpec at cfa.harvard.edu
       
    Fri Feb 16 18:07:00 EST 2024
    
    
  
M.P.E.C. 2024-D19                             Issued 2024 February 16, 23:05 UT
     The Minor Planet Electronic Circulars contain information on unusual
         minor planets, routine data on comets and natural satellites,
         and occasional editorial announcements.  They are published
    on behalf of Division F of the International Astronomical Union by the
          Minor Planet Center, Smithsonian Astrophysical Observatory,
                          Cambridge, MA 02138, U.S.A.
			  
             Prepared using the Tamkin Foundation Computer Network
                              MPC at CFA.HARVARD.EDU
            URL https://www.minorplanetcenter.net/    ISSN 1523-6714
                                    2024 CB8                                    
Observations:
     K24C08B  C2024 01 19.45067008 35 24.848+06 13 59.07         22.00GVED019F52
     K24C08B  C2024 01 19.46198808 35 24.641+06 14 00.94         21.63GVED019F52
     K24C08B  C2024 01 19.47327108 35 24.409+06 14 02.19         22.89GVED019F52
     K24C08B  C2024 01 19.48451808 35 24.213+06 14 04.26         22.87GVED019F52
     K24C08B  C2024 01 19.55719108 35 22.782+06 14 15.79         22.18GVED019F52
     K24C08B  C2024 01 19.55783508 35 22.777+06 14 15.86         22.01GVED019F52
     K24C08B* C2024 02 14.33684508 27 23.562+07 31 59.82         21.94wXED019F51
     K24C08B  C2024 02 14.35002008 27 23.334+07 32 02.58         22.47wXED019F51
     K24C08B  C2024 02 14.36319708 27 23.113+07 32 05.02         22.70wXED019F51
     K24C08B  C2024 02 14.37643408 27 22.875+07 32 07.79         22.09wXED019F51
     K24C08B KC2024 02 15.27582 08 27 07.85 +07 35 05.4                VED019291
     K24C08B KC2024 02 15.29321 08 27 07.59 +07 35 08.8                VED019291
     K24C08B KC2024 02 15.31062 08 27 07.23 +07 35 12.4                VED019291
     K24C08B KC2024 02 16.34527 08 26 50.25 +07 38 37.7                VED019291
     K24C08B KC2024 02 16.36553 08 26 49.89 +07 38 42.1                VED019291
     K24C08B KC2024 02 16.38573 08 26 49.57 +07 38 45.9                VED019291
Observer details:
291 LPL/Spacewatch II.  Observer J. V. Scotti.  1.8-m f/2.7 reflector + CCD.
F51 Pan-STARRS 1, Haleakala.  Observers J. Herman, T. Lowe, P. Minguez, A.
    Schultz, I. Smith.  Measurers K. Chambers, T. de Boer, J. Fairlamb, H.
    Gao, M. Huber, C.-C. Lin, E. Magnier, Y. Ramanjooloo, R. Wainscoat, R.
    Weryk.  1.8-m Ritchey-Chretien + CCD.
F52 Pan-STARRS 2, Haleakala.  Observers J. Herman, T. Lowe, P. Minguez, A.
    Schultz, I. Smith.  Measurers K. Chambers, T. de Boer, J. Fairlamb, H.
    Gao, M. Huber, C.-C. Lin, E. Magnier, Y. Ramanjooloo, R. Wainscoat, R.
    Weryk.  1.8-m Ritchey-Chretien + CCD.
Orbital elements:
2024 CB8                                                                        
Epoch 2024 Mar. 31.0 TT = JDT 2460400.5                 Bell                    
M   2.97148              (2000.0)            P               Q                  
n   0.00687495     Peri.  308.59616     -0.22542161     -0.95626835             
a  27.3919416      Node   152.62392     +0.97130484     -0.23547888             
e   0.7457883      Incl.   23.91089     +0.07584203     +0.17349508             
P 143              H   13.87          G   0.15           U   8                  
Residuals in seconds of arc
240119 F52  0.1-  0.0     240214 F51  0.0   0.1-    240215 291  0.4-  0.0
240119 F52  0.1+  0.1+    240214 F51  0.0   0.1+    240216 291  0.1+  0.0
240119 F52  0.1-  0.4-    240214 F51  0.1+  0.1-    240216 291  0.2-  0.4+
240119 F52  0.2+  0.1-    240214 F51  0.0   0.1+    240216 291  0.0   0.2+
240119 F52  0.1-  0.1+    240215 291  0.0   0.1-
240119 F52  0.0   0.1+    240215 291  0.6+  0.1-
Ephemeris:
2024 CB8                 a,e,i = 27.39, 0.75, 24                 q = 6.9634
Date    TT    R. A. (2000) Decl.     Delta      r    Elong.  Phase     V
2024 01 17    08 36 10.7 +06 07 45   6.3061  7.2469   161.7     2.4    22.4
...
2024 02 01    08 31 25.2 +06 49 32   6.3039  7.2704   168.0     1.6    22.4
...
2024 02 09    08 28 56.6 +07 14 36   6.3309  7.2833   163.7     2.2    22.4
...
2024 02 15    08 27 12.5 +07 34 11   6.3640  7.2931   158.7     2.8    22.5
2024 02 16    08 26 55.9 +07 37 30   6.3706  7.2947   157.8     2.9    22.5
2024 02 17    08 26 39.7 +07 40 48   6.3774  7.2964   156.9     3.0    22.5
...
2024 02 23    08 25 08.6 +08 00 47   6.4244  7.3064   151.1     3.7    22.6
...
2024 03 02    08 23 26.9 +08 27 20   6.5021  7.3199   143.2     4.7    22.7
...
2024 03 17    08 21 30.4 +09 15 03   6.6887  7.3459   128.2     6.1    22.8
M. P. C. Staff               (C) Copyright 2024 MPC           M.P.E.C. 2024-D19
    
    
More information about the Iaude
mailing list